When you browse on this site, cookies collect data to enhance your experience and personalize the content and advertising you see.
Visit our Privacy Policy to learn more. By continuing to use the site, you agree to this use of cookies and data.
  • In France
  • List of Countries
  • For 7 days
  • Water Temperature
  • Satellite Maps
  • Weather Map
  • Weather Widgets
  • user-avatar
    Login

    Hourly Weather Ngo

    Today, 20 November, Tuesday

    Time Temperature Precipitation Wind Pressure Humidity
    00:00 +24°C° 0 mm 1 mps 708 mmHg 79%
    01:00 +24°C° 0 mm 1 mps 708 mmHg 84%
    02:00 +24°C° 0 mm 1 mps 708 mmHg 84%
    03:00 +24°C° 0 mm 1 mps 708 mmHg 85%
    04:00 +23°C° 0 mm 1 mps 708 mmHg 85%
    05:00 +24°C° 0 mm 1 mps 708 mmHg 84%
    06:00 +25°C° 0 mm 1 mps 709 mmHg 82%
    07:00 +26°C° 0 mm 1 mps 709 mmHg 80%
    08:00 +28°C° 0.1 mm 1 mps 710 mmHg 72%
    09:00 +30°C° 0.1 mm 1 mps 710 mmHg 64%
    10:00 +33°C° 0.1 mm 1 mps 710 mmHg 56%
    11:00 +34°C° 0 mm 1 mps 710 mmHg 51%
    12:00 +35°C° 0 mm 1 mps 709 mmHg 46%
    13:00 +35°C° 0 mm 2 mps 708 mmHg 42%
    14:00 +35°C° 0 mm 2 mps 708 mmHg 44%
    15:00 +34°C° 0 mm 1 mps 707 mmHg 45%
    16:00 +34°C° 0 mm 1 mps 707 mmHg 47%
    17:00 +32°C° 0 mm 1 mps 707 mmHg 52%
    18:00 +31°C° 0 mm 1 mps 708 mmHg 57%
    19:00 +29°C° 0 mm 1 mps 708 mmHg 62%
    20:00 +28°C° 0.2 mm 1 mps 708 mmHg 66%
    21:00 +28°C° 0.2 mm 1 mps 709 mmHg 70%
    22:00 +27°C° 0.2 mm 2 mps 709 mmHg 74%
    23:00 +26°C° 0.2 mm 2 mps 709 mmHg 77%

    Tomorrow, 21 November, Wednesday

    Time Temperature Precipitation Wind Pressure Humidity
    00:00 +26°C° 0.2 mm 2 mps 709 mmHg 81%
    01:00 +25°C° 0.2 mm 2 mps 709 mmHg 84%
    02:00 +25°C° 0.4 mm 2 mps 708 mmHg 86%
    03:00 +24°C° 0.4 mm 2 mps 708 mmHg 88%
    04:00 +24°C° 0.4 mm 3 mps 708 mmHg 91%
    05:00 +24°C° 0.5 mm 3 mps 709 mmHg 90%
    06:00 +24°C° 0.5 mm 2 mps 709 mmHg 89%
    07:00 +25°C° 0.5 mm 2 mps 710 mmHg 89%
    08:00 +26°C° 0.8 mm 2 mps 710 mmHg 83%
    09:00 +27°C° 0.8 mm 3 mps 710 mmHg 77%
    10:00 +29°C° 0.8 mm 3 mps 710 mmHg 72%
    11:00 +29°C° 0.9 mm 2 mps 710 mmHg 70%
    12:00 +30°C° 0.9 mm 2 mps 709 mmHg 68%
    13:00 +30°C° 0.9 mm 2 mps 709 mmHg 66%
    14:00 +30°C° 0.4 mm 2 mps 708 mmHg 67%
    15:00 +30°C° 0.4 mm 2 mps 708 mmHg 68%
    16:00 +30°C° 0.4 mm 2 mps 708 mmHg 69%
    17:00 +28°C° 0.1 mm 2 mps 708 mmHg 75%
    18:00 +27°C° 0.1 mm 2 mps 708 mmHg 80%
    19:00 +25°C° 0.1 mm 2 mps 708 mmHg 85%
    20:00 +25°C° 0 mm 2 mps 709 mmHg 85%
    21:00 +25°C° 0 mm 2 mps 709 mmHg 86%
    22:00 +24°C° 0 mm 2 mps 709 mmHg 86%
    23:00 +24°C° 0 mm 2 mps 709 mmHg 86%

    Day after tomorrow, 22 November, Thursday

    Time Temperature Precipitation Wind Pressure Humidity
    00:00 +24°C° 0 mm 2 mps 709 mmHg 86%
    01:00 +23°C° 0 mm 2 mps 708 mmHg 87%
    02:00 +23°C° 0 mm 2 mps 708 mmHg 87%
    03:00 +23°C° 0 mm 2 mps 708 mmHg 88%
    04:00 +23°C° 0 mm 2 mps 708 mmHg 89%
    05:00 +23°C° 0 mm 2 mps 708 mmHg 87%
    06:00 +24°C° 0 mm 2 mps 709 mmHg 85%
    07:00 +25°C° 0 mm 2 mps 710 mmHg 83%
    08:00 +27°C° 0.1 mm 2 mps 710 mmHg 76%
    09:00 +29°C° 0.1 mm 2 mps 710 mmHg 69%
    10:00 +31°C° 0.1 mm 2 mps 711 mmHg 62%
    11:00 +31°C° 0.3 mm 2 mps 710 mmHg 59%
    12:00 +32°C° 0.3 mm 2 mps 709 mmHg 57%
    13:00 +32°C° 0.3 mm 2 mps 708 mmHg 55%
    14:00 +32°C° 0.4 mm 2 mps 708 mmHg 59%
    15:00 +31°C° 0.4 mm 2 mps 707 mmHg 63%
    16:00 +30°C° 0.4 mm 2 mps 707 mmHg 67%
    17:00 +29°C° 0.5 mm 2 mps 707 mmHg 73%
    18:00 +27°C° 0.5 mm 2 mps 708 mmHg 80%
    19:00 +25°C° 0.5 mm 2 mps 708 mmHg 86%
    20:00 +25°C° 0.2 mm 2 mps 709 mmHg 87%
    21:00 +24°C° 0.2 mm 2 mps 709 mmHg 89%
    22:00 +24°C° 0.2 mm 2 mps 710 mmHg 90%
    23:00 +24°C° 0 mm 1 mps 709 mmHg 90%

    23 November, Friday

    Time Temperature Precipitation Wind Pressure Humidity
    00:00 +23°C° 0 mm 1 mps 709 mmHg 91%
    01:00 +23°C° 0 mm 1 mps 709 mmHg 91%
    02:00 +23°C° 0.1 mm 1 mps 708 mmHg 91%
    03:00 +23°C° 0.1 mm 1 mps 708 mmHg 92%
    04:00 +23°C° 0.1 mm 1 mps 708 mmHg 92%
    05:00 +23°C° 0.1 mm 1 mps 709 mmHg 91%
    06:00 +24°C° 0.1 mm 1 mps 710 mmHg 90%
    07:00 +24°C° 0.1 mm 1 mps 710 mmHg 88%
    08:00 +26°C° 0.3 mm 1 mps 710 mmHg 80%
    09:00 +28°C° 0.3 mm 2 mps 711 mmHg 72%
    10:00 +30°C° 0.3 mm 2 mps 711 mmHg 64%
    11:00 +31°C° 0 mm 2 mps 710 mmHg 60%
    12:00 +32°C° 0 mm 2 mps 709 mmHg 55%
    13:00 +33°C° 0 mm 1 mps 708 mmHg 50%
    14:00 +32°C° 0.1 mm 1 mps 708 mmHg 53%
    15:00 +32°C° 0.1 mm 1 mps 707 mmHg 56%
    16:00 +31°C° 0.1 mm 1 mps 707 mmHg 59%
    17:00 +29°C° 0.5 mm 1 mps 707 mmHg 66%
    18:00 +28°C° 0.5 mm 1 mps 707 mmHg 73%
    19:00 +26°C° 0.5 mm 1 mps 708 mmHg 80%
    20:00 +25°C° 0.1 mm 1 mps 708 mmHg 82%
    21:00 +25°C° 0.1 mm 1 mps 709 mmHg 84%
    22:00 +24°C° 0.1 mm 1 mps 709 mmHg 85%
    23:00 +24°C° 0.1 mm 1 mps 709 mmHg 87%

    24 November, Saturday

    Time Temperature Precipitation Wind Pressure Humidity
    00:00 +24°C° 0.1 mm 1 mps 708 mmHg 88%
    01:00 +23°C° 0.1 mm 1 mps 708 mmHg 90%
    02:00 +23°C° 0 mm 1 mps 708 mmHg 89%
    03:00 +23°C° 0 mm 1 mps 708 mmHg 89%
    04:00 +23°C° 0 mm 1 mps 708 mmHg 88%
    05:00 +24°C° 0 mm 1 mps 708 mmHg 86%
    06:00 +24°C° 0 mm 1 mps 709 mmHg 85%
    07:00 +25°C° 0 mm 1 mps 709 mmHg 83%
    08:00 +27°C° 0 mm 1 mps 710 mmHg 75%
    09:00 +29°C° 0 mm 1 mps 710 mmHg 66%
    10:00 +32°C° 0 mm 1 mps 710 mmHg 57%
    11:00 +32°C° 0.9 mm 1 mps 710 mmHg 56%
    12:00 +33°C° 0.9 mm 1 mps 709 mmHg 56%
    13:00 +33°C° 0.9 mm 1 mps 708 mmHg 55%
    14:00 +32°C° 0.5 mm 1 mps 708 mmHg 59%
    15:00 +31°C° 0.5 mm 1 mps 707 mmHg 63%
    16:00 +30°C° 0.5 mm 1 mps 707 mmHg 67%
    17:00 +28°C° 0.4 mm 1 mps 707 mmHg 73%
    18:00 +27°C° 0.4 mm 1 mps 708 mmHg 79%
    19:00 +25°C° 0.4 mm 2 mps 708 mmHg 85%
    20:00 +25°C° 0.9 mm 2 mps 708 mmHg 87%
    21:00 +24°C° 0.9 mm 2 mps 709 mmHg 89%
    22:00 +24°C° 0.9 mm 2 mps 709 mmHg 92%
    23:00 +24°C° 0.5 mm 2 mps 709 mmHg 92%

    25 November, Sunday

    Time Temperature Precipitation Wind Pressure Humidity
    00:00 +23°C° 0.5 mm 2 mps 708 mmHg 93%
    01:00 +23°C° 0.5 mm 2 mps 708 mmHg 93%
    02:00 +23°C° 0.2 mm 2 mps 708 mmHg 93%
    03:00 +23°C° 0.2 mm 2 mps 708 mmHg 93%
    04:00 +23°C° 0.2 mm 2 mps 708 mmHg 93%
    05:00 +23°C° 0 mm 2 mps 708 mmHg 92%
    06:00 +24°C° 0 mm 2 mps 709 mmHg 90%
    07:00 +24°C° 0 mm 2 mps 709 mmHg 89%
    08:00 +26°C° 0.3 mm 2 mps 710 mmHg 81%
    09:00 +28°C° 0.3 mm 2 mps 710 mmHg 73%
    10:00 +30°C° 0.3 mm 2 mps 710 mmHg 66%
    11:00 +32°C° 0.4 mm 1 mps 709 mmHg 61%
    12:00 +33°C° 0.4 mm 1 mps 709 mmHg 56%
    13:00 +34°C° 0.4 mm 1 mps 708 mmHg 51%
    14:00 +31°C° 0.6 mm 0 mps 707 mmHg 55%
    15:00 +30°C° 0.6 mm 0 mps 707 mmHg 58%
    16:00 +29°C° 0.6 mm 0 mps 706 mmHg 61%
    17:00 +30°C° 0.2 mm 1 mps 707 mmHg 68%
    18:00 +28°C° 0.2 mm 1 mps 707 mmHg 74%
    19:00 +26°C° 0.2 mm 2 mps 708 mmHg 80%
    20:00 +26°C° 0.7 mm 2 mps 708 mmHg 83%
    21:00 +25°C° 0.7 mm 2 mps 708 mmHg 86%
    22:00 +25°C° 0.7 mm 2 mps 708 mmHg 88%
    23:00 +24°C° 0.5 mm 2 mps 708 mmHg 90%
    Show more